CAPE
0 0 0 0 0 0 0 0 0 0 0 0 0 0 0 0 0 0 718 1487 1410 1695 1720 1621 1960 2249 2049 2006 2014 2023 2014 1960 1996 1949 1902 1845 1700 1517 1368 1338 1175 963 913 353 196 69 14 11 7
0 0 0 0 0 0 0 0 0 0 0 0 0 0 0 0 0 13 1028 1464 1589 1220 1826 1808 1802 2094 2282 2134 2087 2062 2217 2080 2061 2086 1910 1813 1816 1640 1634 1401 1058 877 858 269 126 71 15 14 116
0 0 0 0 0 0 0 0 0 0 0 0 0 0 0 0 8 438 898 1057 988 1112 1209 2272 1729 1906 2265 2216 2114 2080 2177 2039 2011 1959 1588 1602 1485 1699 1682 1239 921 934 887 157 102 89 50 16 19
0 0 0 0 0 0 0 0 0 0 0 0 0 0 0 0 0 521 714 553 680 899 1720 1245 1620 1804 2119 2149 2178 2077 1835 1933 1759 1338 758 1527 1448 1706 1484 1065 904 868 661 118 107 74 11 5 0
0 0 0 0 0 0 0 0 0 0 0 0 0 0 0 0 338 674 826 728 873 899 1906 1940 1286 1560 2040 2267 2107 2030 1828 1792 1691 1566 1429 1350 1186 1297 1243 960 801 598 463 163 41 9 0 0 0
0 0 0 0 0 0 0 0 0 0 0 0 0 0 0 95 197 538 1211 973 1276 1229 2118 2168 664 782 1535 1969 1820 1699 1654 1182 1520 1660 1333 920 953 786 868 847 706 410 183 107 55 21 0 0 0
0 0 0 0 0 0 0 0 0 0 0 0 0 0 0 288 891 1177 1098 1057 1491 1662 1546 1652 1359 736 609 402 434 304 57 5 879 1264 581 307 472 684 783 723 507 231 124 91 48 13 0 0 0
0 0 0 0 0 0 0 0 0 0 0 0 0 0 0 1005 1070 1008 1157 1270 1104 1311 1231 1214 886 386 187 289 4 45 21 0 0 797 550 597 600 518 533 337 252 124 83 4 0 0 0 0 0
0 0 0 0 0 0 0 0 0 0 0 0 0 0 0 430 655 850 1133 1477 1365 1122 1086 1055 775 368 209 32 69 70 39 15 0 450 477 398 456 506 314 186 118 85 26 4 0 0 0 0 0
0 0 0 0 0 0 0 0 0 0 0 0 0 0 15 353 399 488 769 984 1574 1523 998 1072 820 369 58 28 1 35 18 0 0 330 364 440 455 410 276 130 86 29 4 0 0 0 0 0 0
0 0 0 0 0 0 0 0 0 0 0 0 0 0 2 312 566 681 782 840 901 1216 1257 722 605 194 0 96 20 62 0 5 12 185 197 331 472 259 260 181 7 0 0 0 0 0 0 0 0
0 0 0 0 0 0 0 0 0 0 0 0 0 0 0 0 36 644 975 1081 899 1166 888 680 469 66 6 123 15 61 39 8 8 320 269 392 277 219 251 139 1 0 0 0 0 0 0 0 0
0 0 0 0 0 0 0 0 0 0 0 0 0 0 0 0 58 450 981 1064 870 732 653 543 431 365 219 127 89 93 15 0 8 63 239 223 122 259 186 140 53 0 0 0 0 0 0 0 0
0 0 0 0 0 0 0 0 0 0 0 0 0 0 0 0 166 599 1204 955 518 576 554 415 345 412 443 278 129 103 19 0 16 139 219 220 178 267 153 115 102 1 0 0 0 0 6 0 0
0 0 0 0 0 0 0 0 0 0 0 0 0 0 0 0 136 518 787 724 536 445 343 77 269 296 267 178 251 208 151 18 104 64 122 241 236 183 57 68 110 70 8 8 0 0 13 3 0
0 0 0 0 0 0 0 0 0 0 0 0 0 0 0 43 154 470 535 373 376 376 146 39 5 55 113 130 244 222 189 153 66 7 63 79 172 108 51 61 73 99 69 83 36 49 4 0 0
0 0 0 0 0 0 0 0 0 0 0 0 0 0 0 101 498 419 383 328 302 301 44 9 10 8 36 32 13 156 161 113 92 12 20 26 62 35 76 71 100 149 110 107 103 22 0 0 0
0 0 0 0 0 0 3 0 0 0 0 0 0 0 0 6 538 517 391 332 114 190 22 6 3 11 8 1 0 16 64 135 132 28 5 2 2 1 6 25 98 33 66 103 42 25 0 0 0
0 0 0 0 0 0 27 28 0 0 0 0 0 0 3 3 143 673 420 351 29 30 3 0 6 6 7 8 12 10 1 1 82 76 1 0 1 0 0 17 12 3 37 57 68 19 10 0 0
0 0 0 0 0 0 0 0 0 0 0 0 0 0 0 11 353 643 410 301 18 0 0 1 9 4 8 11 11 12 9 4 32 71 7 2 0 0 0 1 22 16 0 12 31 19 22 23 14
0 0 8 0 0 0 0 0 0 0 0 0 0 0 0 0 326 559 396 289 21 0 1 1 0 4 5 5 7 1 11 28 51 88 4 1 0 0 0 7 5 18 17 39 44 58 51 50 26
0 0 0 0 2 1 0 1 0 0 0 0 0 0 0 0 10 546 391 311 77 1 1 3 2 1 7 3 8 0 1 2 2 52 2 1 0 0 0 12 13 8 24 57 62 99 121 66 23
2 0 0 0 3 11 0 1 0 0 0 0 0 0 0 0 0 582 360 278 177 1 0 1 4 3 1 3 2 1 1 2 1 2 1 0 0 0 0 0 6 22 51 95 92 117 113 78 28
9 3 0 3 7 16 0 0 0 0 0 0 2 0 6 0 0 454 425 225 130 62 0 2 4 5 3 1 4 2 1 3 1 2 4 3 1 4 0 0 20 27 45 75 93 116 99 111 62
0 2 12 20 27 3 0 6 0 0 0 0 0 10 9 2 194 352 413 108 46 37 1 0 2 3 8 0 6 1 0 0 1 2 3 3 3 2 0 0 16 11 28 54 85 128 95 80 105
0 24 12 18 27 42 0 1 7 9 0 0 7 6 11 26 320 306 441 136 57 36 3 0 3 3 5 4 0 0 0 0 1 0 1 7 6 5 10 4 7 24 37 67 68 48 88 109 106
0 17 3 71 31 6 0 1 28 6 0 0 1 37 17 123 186 353 472 283 124 41 13 21 1 1 6 3 0 0 0 0 0 1 0 0 0 17 23 10 14 18 26 20 34 43 50 72 57
0 0 24 67 12 8 0 0 1 14 13 6 10 39 14 19 247 416 451 434 277 151 78 14 9 2 2 10 1 0 1 0 0 4 1 0 0 2 2 4 2 0 1 4 36 33 36 53 44
0 0 0 2 17 39 44 0 12 18 58 32 9 17 44 17 99 435 450 522 329 231 173 53 26 6 2 8 6 3 0 2 0 0 0 0 0 0 18 23 15 10 4 11 14 14 16 15 17
77 0 0 7 0 54 27 0 0 0 1 0 0 1 16 30 53 395 467 621 428 254 172 83 59 44 18 7 2 0 0 1 5 0 0 0 13 6 2 4 12 3 0 2 5 12 24 31 22
CIN
0 0 0 0 0 0 0 0 0 0 0 0 0 0 0 0 0 -1 -32 -45 -33 -13 -113 -145 -106 -46 -36 -15 -10 -5 -0 0 0 0 0 0 0 0 0 0 -0 -0 0 -5 -16 -55 0 0 -3
0 0 0 0 0 0 0 0 0 0 0 0 0 0 0 0 0 -6 -28 -62 -53 -27 -63 -100 -124 -54 -17 -16 -0 -0 0 -1 0 0 -0 -0 0 0 0 0 -2 -0 -0 -11 -52 -99 -32 -64 -28
0 0 0 0 0 0 0 0 0 0 0 0 0 0 0 0 -11 -27 -60 -73 -55 -45 -28 -25 -173 -109 -15 -2 -4 -0 -0 -0 -0 -0 -35 -1 -1 0 0 -0 -6 -0 0 -13 -62 -88 -78 -67 -34
0 0 0 0 0 0 0 0 0 0 0 0 0 0 0 0 0 -23 -58 -68 -66 -58 -73 -261 -168 -144 -68 -26 -0 -1 -1 -1 -2 -14 -99 -0 -0 0 -0 -1 -4 -2 0 -21 -109 -58 -120 -88 -3
0 0 0 0 0 0 0 0 0 0 0 0 0 0 0 0 -63 -46 -75 -77 -76 -55 -32 -124 -200 -127 -44 -39 -15 -2 -5 -1 -2 -1 -2 -2 -1 -0 -0 -2 -2 -34 -10 -32 -142 -99 0 0 0
0 0 0 0 0 0 0 0 0 0 0 0 0 0 0 -103 -88 -39 -98 -84 -94 -92 -35 -63 -280 -215 -76 -8 -21 -16 -11 -10 -4 -3 -6 -10 -1 -2 -3 -2 -11 -15 -88 -76 -83 -165 0 0 0
0 0 0 0 0 0 0 0 0 0 0 0 0 0 0 -78 -63 -72 -98 -107 -104 -100 -83 -70 -97 -158 -191 -186 -169 -195 -199 -61 -11 -9 -56 -88 -21 -6 -6 -2 -10 -47 -75 -104 -152 -184 0 0 0
0 0 0 0 0 0 0 0 0 0 0 0 0 0 0 -27 -87 -116 -132 -138 -169 -139 -110 -68 -104 -193 -199 -108 -93 -221 -248 0 0 -13 -26 -56 -7 -6 -7 -16 -31 -49 -74 0 0 0 0 0 0
0 0 0 0 0 0 0 0 0 0 0 0 0 0 0 -41 -68 -96 -93 -87 -138 -146 -90 -53 -61 -118 -77 -120 -109 -88 -142 -93 0 -15 -34 -36 -3 -3 -7 -43 -50 -36 -38 0 0 0 0 0 0
0 0 0 0 0 0 0 0 0 0 0 0 0 0 -9 -91 -57 -39 -45 -24 -22 -34 -84 -9 -9 -31 -90 -73 -8 -0 -0 0 -0 -7 -18 -6 -2 -2 -0 -14 -39 -50 -0 0 0 0 0 0 0
0 0 0 0 0 0 0 0 0 0 0 0 0 0 -1 -51 -27 -20 -37 -39 -36 -8 -16 -16 -1 -33 0 -61 -57 -23 -1 -29 -0 -6 -22 -6 -1 -7 -4 -1 -3 0 0 0 0 0 0 0 0
0 0 0 0 0 0 0 0 0 0 0 0 0 0 0 -1 -74 -19 -31 -37 -44 -34 -61 -25 -6 -35 -139 -18 -71 -7 -5 -68 -12 -2 -89 -2 -6 -5 -2 -2 -2 0 0 0 0 0 0 0 0
0 0 0 0 0 0 0 0 0 0 0 0 0 0 0 0 -90 -27 -29 -62 -85 -65 -59 -41 -2 -4 -4 -10 -21 -3 -37 0 -132 -31 -8 -3 -20 -5 -13 -3 -6 0 0 0 0 0 0 0 0
0 0 0 0 0 0 0 0 0 0 0 0 0 0 0 0 -43 -26 -56 -100 -145 -107 -89 -79 -15 -1 -3 -4 -24 -25 -25 0 -45 -8 -8 -5 -7 -4 -12 -18 -3 -4 0 0 0 0 -8 0 0
0 0 0 0 0 0 0 0 0 0 0 0 0 0 0 -9 -42 -21 -42 -59 -112 -140 -103 -122 -14 -1 -2 -2 -13 -23 -4 -7 -2 -9 -29 -7 -7 -16 -34 -22 -14 -2 -48 -12 0 0 -11 -11 0
0 0 0 0 0 0 0 0 0 0 0 0 0 0 0 -69 -36 -25 -32 -55 -107 -164 -158 -133 -9 -35 -9 -12 -6 -7 -6 -5 -9 -66 -80 -75 -19 -27 -31 -25 -22 -13 -12 -10 -23 -14 -16 0 0
0 0 0 0 0 0 0 0 0 0 0 0 0 0 0 -34 -38 -51 -64 -92 -132 -187 -219 -3 -1 -3 -27 -4 -15 -5 -4 -11 -9 -44 -30 -21 -14 -71 -50 -30 -44 -17 -17 -15 -17 -26 0 0 0
0 0 0 0 0 0 -2 0 0 0 0 0 0 0 0 -2 -41 -69 -101 -142 -222 -221 -293 -1 -0 -0 -2 -1 -0 -0 -26 -11 -2 -6 -36 -28 -26 -31 -91 -99 -45 -55 -43 -26 -30 -43 0 0 0
0 0 0 0 0 0 0 -0 0 0 0 0 0 -3 -8 -7 -26 -82 -130 -174 -277 -260 -4 0 0 -0 -0 -0 0 -0 -0 -14 -0 -4 -46 -9 -24 0 0 -109 -93 -78 -71 -41 -28 -74 -90 0 0
0 0 0 0 0 0 0 -0 0 0 0 0 0 0 0 -4 -30 -99 -155 -227 -312 0 -0 0 -0 -0 -0 -1 -0 -1 -1 -1 -5 -1 -19 -8 0 0 0 -27 -114 -82 0 -32 -73 -91 -46 -26 -34
0 0 -4 0 0 0 0 -0 0 0 0 0 0 0 0 0 -39 -117 -190 -256 -272 0 -1 -0 -0 -0 -0 -1 0 -2 0 -15 -1 -0 -6 -2 0 0 0 -74 -89 -82 -91 -44 -91 -75 -45 -37 -96
0 0 0 -0 -0 0 0 0 0 0 0 0 0 0 0 0 -2 -92 -184 -243 -327 -4 -4 -1 0 -0 -0 -0 -0 -3 -0 -5 -0 -0 -6 -0 0 0 0 -41 -61 -75 -51 -49 -58 -38 -33 -56 -131
-0 0 0 0 -1 0 0 0 0 0 0 0 0 0 0 0 0 -71 -155 -214 -257 -17 0 -2 -2 -1 -0 -0 -0 -1 0 0 0 0 0 -0 -0 0 0 -11 -21 -21 -14 -31 -32 -31 -47 -66 -106
-1 -3 0 -0 0 0 0 0 0 0 0 0 -1 0 -7 -1 0 -47 -125 -215 -261 -323 -2 -6 -3 -2 -0 -0 -0 -1 0 0 0 0 0 -0 -0 -1 -0 0 -27 -23 -23 -26 -34 -22 -87 -58 -42
0 -2 0 0 0 0 0 -0 0 0 0 0 -0 -6 -20 -12 -42 -68 -120 -218 -304 -383 -134 0 -4 -2 -0 -0 -1 -1 0 -0 0 -0 -0 -0 -0 -0 0 0 -4 -29 -23 -10 -23 -66 -64 -48 -51
0 -0 -2 -1 -0 -4 -4 -1 -4 -3 0 0 -8 -7 -16 -73 -51 -72 -99 -205 -310 -385 -140 0 -3 -1 -0 -0 0 0 0 -0 -0 -0 -0 -1 -1 -2 -2 -1 -5 -10 -7 -19 -68 -18 -41 -63 -72
0 -1 -0 -0 -1 0 0 -25 -6 -5 0 0 -1 -5 -40 -12 -42 -64 -65 -158 -287 -372 -464 -445 -2 -0 -0 0 0 0 0 -0 -0 -1 0 0 -0 -0 -2 -2 -10 -40 -45 -63 -52 -44 -46 -47 -64
0 0 -2 0 -2 -2 0 0 -2 -36 -13 -2 -16 -4 -27 -18 -24 -38 -48 -130 -210 -299 -350 -444 -427 -0 -0 0 -9 0 -4 0 0 -3 -0 0 0 -11 -26 -42 -32 0 -35 -38 -67 -76 -74 -43 -42
0 0 0 -1 -1 -0 -0 0 -10 -1 -6 -12 -40 -6 -17 -17 -24 -33 -47 -112 -146 -251 -284 -363 -388 -245 -1 -0 -1 -2 -0 -1 0 0 0 0 0 0 -10 -39 -45 -46 -43 -50 -77 -73 -64 -42 -36
-23 -1 0 -6 -0 0 -3 -1 0 -0 -2 -1 -2 -0 -17 -23 -5 -20 -44 -82 -135 -232 -270 -324 -325 -324 -354 -335 -1 -0 -0 -8 -13 0 0 0 -10 -13 -13 -25 -39 -44 -3 -56 -53 -46 -16 -22 -32
Wind_Speed
7 10 9 10 7 9 18 7 8 8 1 6 6 4 10 10 8 3 10 9 7 10 15 14 14 13 14 14 14 14 13 15 15 16 17 18 19 20 20 21 21 21 22 21 20 22 20 20 20
11 16 9 7 9 13 11 8 5 4 9 10 5 8 10 9 4 5 9 8 6 4 13 14 13 12 14 15 14 15 17 18 18 19 18 15 16 19 20 21 22 21 21 21 21 23 20 19 17
10 17 8 8 13 14 16 9 5 8 6 4 6 9 3 4 9 7 10 6 3 4 1 9 18 15 13 14 17 17 18 19 21 21 26 19 16 18 20 20 23 21 21 21 22 22 20 16 12
7 8 7 8 15 20 22 5 7 2 8 7 2 6 8 4 3 11 11 6 5 4 11 10 7 17 17 18 18 20 20 21 23 21 21 25 23 22 20 19 23 23 21 21 24 19 19 13 9
10 7 12 16 21 23 13 2 5 7 10 4 7 11 10 14 17 13 9 7 3 1 6 9 7 4 11 19 21 22 22 23 23 25 25 25 19 17 20 20 20 24 22 21 23 20 17 12 9
10 10 13 14 19 15 3 5 1 6 11 10 9 9 10 10 11 11 7 5 4 2 5 6 7 5 9 10 19 23 27 23 24 23 27 28 25 19 17 19 20 20 26 22 20 20 16 11 8
14 12 17 21 19 21 14 8 9 8 12 10 5 8 7 13 11 9 6 3 3 5 2 2 3 5 7 4 3 3 10 2 19 26 28 26 24 28 22 19 21 23 22 22 21 18 15 10 7
13 13 22 19 16 20 11 5 8 6 13 9 0 5 7 13 11 8 6 4 1 4 3 1 4 3 1 2 8 11 15 11 20 20 29 29 24 22 22 22 22 22 21 21 21 18 15 10 6
19 15 15 21 20 17 11 3 7 7 10 9 11 11 11 15 16 9 9 7 7 4 3 5 5 6 3 2 7 16 20 24 26 27 27 21 16 17 21 19 24 22 21 22 20 18 15 10 6
17 15 22 21 20 16 11 13 15 8 13 14 11 12 8 13 9 8 9 9 12 11 8 5 7 6 3 2 3 6 9 7 20 15 21 16 18 16 16 19 23 22 20 20 19 18 15 10 3
20 20 21 24 24 21 14 14 17 15 16 15 10 12 6 14 11 7 5 6 4 1 5 6 5 4 6 4 3 3 5 7 20 23 21 19 14 12 12 10 9 11 15 9 11 12 7 7 5
26 23 24 24 22 20 20 18 17 17 18 16 13 11 8 1 4 5 7 5 5 7 8 5 6 8 7 4 6 6 6 1 6 16 22 15 10 11 13 10 10 10 8 11 9 7 7 8 7
25 24 24 23 23 20 22 19 20 20 18 16 16 14 8 3 6 6 4 2 2 4 6 5 4 8 7 7 6 6 6 8 5 7 12 11 12 11 12 11 11 9 9 9 9 8 7 8 6
22 25 23 22 22 21 24 23 19 20 18 18 16 12 9 6 8 6 9 7 7 5 6 6 5 5 7 8 7 8 8 10 8 7 9 11 11 10 11 12 11 10 10 9 9 8 7 5 6
22 25 24 23 24 24 22 24 22 19 21 22 16 10 9 9 10 10 7 11 9 5 5 6 6 5 4 4 6 5 8 11 10 12 4 7 11 11 13 11 9 9 10 10 8 7 5 5 6
25 24 19 17 23 25 23 23 21 20 20 9 9 8 15 13 12 10 10 6 6 7 5 5 5 1 5 6 5 6 8 9 9 9 10 11 8 12 11 11 11 11 11 9 9 6 5 5 5
18 21 25 26 22 26 24 22 18 18 13 8 10 11 12 13 13 11 8 5 6 7 6 5 5 4 4 4 3 5 9 8 9 10 8 11 13 3 7 10 7 11 11 9 7 5 6 5 4
19 19 19 21 21 24 25 21 16 18 18 13 14 14 13 6 17 14 12 9 10 6 8 6 6 4 4 4 2 2 4 6 10 11 11 14 11 8 5 6 4 7 7 8 7 7 5 5 5
23 24 19 23 30 27 24 22 16 17 16 15 12 13 12 10 12 18 13 12 11 9 8 9 8 6 5 3 4 5 6 6 7 11 17 16 13 12 6 6 5 4 9 1 7 5 6 3 4
22 20 23 23 26 26 29 23 17 16 18 15 15 14 13 9 16 18 15 12 13 9 10 10 8 8 6 4 3 2 3 8 9 8 17 18 17 15 9 8 6 6 5 7 6 6 3 3 4
21 23 19 22 25 31 30 24 22 17 17 17 18 14 14 7 15 18 16 14 13 10 10 9 10 7 5 5 4 1 5 7 9 11 12 20 20 15 9 5 6 6 7 3 5 6 7 3 2
20 19 21 20 19 17 23 17 20 16 21 23 23 18 16 9 7 18 17 15 15 12 9 11 9 8 6 7 5 2 2 5 4 13 11 13 19 15 10 7 8 5 4 5 5 5 4 5 4
19 14 15 20 21 18 25 17 14 18 14 14 14 12 14 15 14 21 18 16 14 14 11 9 11 9 9 7 7 4 4 6 8 7 14 15 14 15 11 8 9 9 8 7 6 3 5 5 6
19 13 19 18 15 17 19 21 17 15 17 19 16 15 12 11 13 18 18 16 14 14 12 8 10 10 10 7 10 7 8 7 9 10 9 8 10 12 10 10 7 7 5 7 9 9 6 5 5
17 11 10 12 14 15 19 20 14 16 19 18 14 6 8 2 11 14 18 16 15 16 13 11 11 10 10 9 8 10 10 11 12 12 10 11 9 9 12 14 10 7 9 12 8 4 7 6 5
19 15 8 11 12 7 18 9 15 19 16 10 6 4 8 11 10 14 18 16 17 16 15 14 13 13 12 11 11 9 11 7 8 11 10 10 10 12 15 15 12 12 15 9 9 13 8 8 7
21 19 18 19 18 12 9 20 22 8 1 8 11 7 6 9 14 14 17 17 18 17 17 16 16 13 13 13 10 10 10 11 10 12 12 9 9 9 12 14 11 7 9 7 8 6 8 6 7
22 14 12 11 10 11 13 16 8 8 11 4 12 8 10 11 14 14 15 16 17 17 17 15 16 16 15 15 12 11 12 11 11 9 12 13 12 13 13 14 13 11 10 11 8 8 7 6 5
13 16 15 14 16 13 9 8 7 6 18 7 9 10 7 8 13 15 14 17 15 17 16 16 16 16 16 15 12 13 13 12 12 11 10 11 12 13 14 15 15 15 14 11 10 10 9 10 9
7 14 18 11 15 10 14 15 12 12 15 7 7 10 9 9 2 14 15 17 16 17 17 16 14 15 16 16 14 15 12 12 13 13 14 12 12 12 12 14 15 15 14 12 12 10 10 11 10
Wind_Direction
248 234 234 252 250 235 265 274 64 352 254 72 32 359 336 315 307 350 91 82 37 91 131 141 136 138 152 155 154 152 157 141 141 134 131 129 131 130 130 129 126 123 120 124 118 113 112 109 104
238 238 236 279 249 280 287 63 56 57 48 40 338 256 253 317 13 101 94 82 67 33 146 150 149 151 157 163 161 162 165 154 153 143 127 132 137 137 136 133 127 125 123 126 123 117 118 115 113
255 260 266 235 252 251 284 37 36 49 86 161 262 296 259 234 75 80 103 97 117 109 8 134 155 156 162 171 167 172 173 161 158 154 144 155 150 147 139 134 126 126 128 131 125 120 120 116 117
229 222 239 248 264 284 298 352 54 303 272 184 283 307 292 103 176 114 127 141 176 161 108 106 146 163 167 175 178 179 184 171 165 166 157 159 169 151 138 137 132 130 128 131 120 127 123 117 117
234 267 252 257 263 258 262 117 358 314 301 343 311 294 323 310 118 128 136 146 180 140 114 121 128 180 185 181 186 189 189 175 169 167 164 149 155 140 142 139 136 132 131 128 128 129 122 124 123
234 231 262 266 273 313 342 129 287 302 291 278 263 264 279 112 131 131 120 178 150 164 94 132 146 201 212 221 195 199 194 182 169 166 158 142 151 156 148 141 137 135 129 129 133 127 127 132 123
247 261 259 265 282 287 300 168 182 242 281 294 317 313 337 92 96 103 126 164 112 84 355 231 129 194 213 209 220 151 135 291 202 166 148 145 166 159 149 146 138 130 129 132 128 126 130 133 135
239 257 266 272 276 280 285 308 134 237 264 310 58 264 292 128 135 137 149 139 151 154 213 283 139 200 348 241 189 182 212 208 261 193 152 159 161 153 140 140 133 131 132 130 129 130 131 132 126
247 252 259 261 268 284 348 290 198 243 271 270 270 275 235 156 143 162 184 194 183 192 208 167 174 218 193 294 232 203 209 193 202 191 149 144 161 151 140 141 136 135 138 134 133 128 124 127 141
240 249 255 260 277 304 321 310 294 245 253 260 259 268 271 124 161 191 209 223 197 183 180 204 176 227 133 241 181 177 182 172 214 186 144 157 162 149 145 136 137 134 137 131 131 130 133 142 140
243 245 260 277 293 310 305 285 288 281 276 267 265 269 323 165 179 193 250 258 262 220 149 172 173 163 165 163 96 108 179 222 216 168 155 176 163 153 133 135 137 134 135 134 132 133 149 138 156
256 252 255 268 279 286 290 289 274 277 278 287 296 283 290 261 296 174 222 224 247 156 158 169 165 167 166 156 154 171 169 112 51 152 160 159 151 145 138 144 145 148 156 147 147 162 162 165 184
260 261 258 264 261 276 281 270 275 274 275 284 289 281 284 216 246 221 139 18 314 276 118 145 208 168 182 196 168 175 150 141 193 153 179 157 146 145 143 148 151 160 153 159 159 175 172 171 160
275 280 279 271 269 261 269 270 266 262 269 261 256 246 246 268 226 213 154 218 207 217 160 151 208 183 173 192 182 172 153 159 167 166 175 159 148 149 149 152 157 167 152 162 171 178 164 157 158
275 278 277 271 273 270 267 270 264 266 258 254 242 236 245 212 205 212 208 216 179 173 141 160 178 157 152 140 149 145 151 166 169 157 155 167 147 158 157 156 157 173 156 165 180 185 138 138 145
277 282 271 271 262 257 251 260 261 261 272 234 246 244 245 189 203 193 202 202 166 137 164 180 88 154 145 138 145 150 158 160 161 170 165 154 174 163 161 158 166 172 163 172 181 162 136 151 147
257 261 265 275 276 265 254 251 263 254 255 218 249 249 253 189 178 176 165 159 151 140 173 129 149 203 153 110 60 143 170 171 163 169 169 162 168 197 158 166 177 164 168 169 164 139 139 136 159
252 253 258 270 271 277 275 238 241 258 267 241 228 225 249 229 177 168 162 160 129 154 154 170 186 179 108 97 178 217 170 188 176 173 169 157 154 175 136 124 170 146 149 159 143 137 141 149 169
258 273 266 273 282 301 271 260 246 252 265 243 254 246 227 221 167 154 154 136 140 153 164 194 178 156 160 145 187 204 205 198 188 173 170 162 163 157 155 139 128 138 133 272 131 119 143 158 180
262 258 265 278 284 284 276 282 261 264 267 281 271 263 263 229 140 138 143 145 146 169 193 193 183 172 177 174 147 182 196 202 198 183 170 165 164 159 164 146 143 112 104 130 124 123 148 152 160
256 250 235 248 276 288 291 279 273 259 271 262 264 265 266 251 155 145 153 160 146 175 189 195 188 167 168 134 137 209 178 188 186 187 179 164 160 156 140 135 137 131 114 165 152 158 165 149 108
254 251 281 280 258 263 277 276 258 259 252 240 233 228 232 217 203 152 157 164 159 172 183 190 183 165 176 173 152 71 14 121 105 173 155 148 152 149 138 123 138 149 135 166 160 171 160 132 149
254 254 265 281 274 267 256 263 267 272 277 269 271 207 208 213 194 153 157 162 165 162 176 189 168 167 180 174 154 134 83 91 97 106 128 142 150 152 151 147 161 191 199 162 144 182 187 142 166
263 233 255 273 270 255 261 260 260 253 255 254 249 231 209 223 157 143 148 153 163 156 167 166 167 177 174 183 149 152 124 118 115 118 117 136 144 154 154 169 192 194 175 163 180 197 193 191 180
271 221 243 253 251 259 253 249 241 248 247 260 266 179 130 122 137 144 150 158 161 156 159 161 178 173 174 175 154 146 150 147 138 140 139 143 148 158 175 183 197 182 197 204 193 172 184 204 193
238 212 203 232 246 295 322 281 265 237 229 250 291 208 152 166 153 162 160 160 161 160 168 172 181 172 177 177 156 151 155 156 157 156 154 152 169 175 178 192 196 205 203 186 177 220 198 197 203
232 230 224 249 270 279 249 275 278 271 92 219 251 206 175 174 161 169 165 162 160 166 172 179 169 186 177 176 173 168 166 167 165 168 160 165 159 162 174 190 195 187 185 187 201 205 216 200 206
225 252 239 218 233 268 248 272 277 345 331 268 275 196 210 183 163 166 172 165 161 166 166 181 172 177 178 179 180 177 172 173 173 161 163 168 172 177 171 181 190 197 197 208 202 220 236 220 215
205 230 247 219 250 235 265 269 33 288 206 208 13 348 314 222 163 161 173 165 165 163 166 173 179 172 174 177 178 172 181 179 171 175 182 179 180 185 183 187 194 204 210 209 211 221 221 229 227
314 245 226 237 246 241 253 262 280 37 331 355 357 348 351 18 336 160 171 165 167 167 167 175 183 176 173 174 178 184 186 178 179 180 188 194 188 189 185 184 195 201 203 205 211 217 224 225 229